リニア彗星

225P/LINEAR (2023)

English version
Home page
Updated on September 2, 2023

---------------------------------------------------------------------

・ プロフィール

・ 軌道要素

Epoch 2023 Sept. 13.0 TT = JDT 2460200.5
T 2023 Aug. 8.04381 TT                                  Rudenko
q   1.3188063            (2000.0)            P               Q
n   0.14138809     Peri.    3.91000     +0.95158828     -0.29408779
a   3.6491706      Node    14.20428     +0.27120685     +0.66643837
e   0.6386011      Incl.   21.36623     +0.14466028     +0.68510749
P   6.97
>From 493 observations 2002 Sept. 29-2023 July 29. +0.00 +0.0000.

・ 光度変化

        m1 = 18.5 + 5 logΔ + 10.0 log r

---------------------------------------------------------------------

軌道要素はM.P.E.C. 2023-Q150に掲載されたものです。
光度グラフはComet for Windowsで作成したものです。

---------------------------------------------------------------------

Copyright(C) Seiichi Yoshida (comet@aerith.net). All rights reserved.